Glenwood, MN

3:44 AM CDT on July 28, 2017 (GMT -0500)
Glenwood Municipal

Weather History for KGHW - September, 2012

Change the Weather History Date:

Thursday, September 13, 2012

  Actual Average Record
Temperature  
Mean Temperature 56 °F -  
Max Temperature 73 °F 71 °F 90 °F (1976)
Min Temperature 39 °F 48 °F 32 °F (1963)
Degree Days  
Heating Degree Days 9    
Growing Degree Days 6 (Base 50)    
Moisture  
Dew Point 25 °F    
Average Humidity 35    
Maximum Humidity 87    
Minimum Humidity 9    
Precipitation  
Precipitation 0.00 in - - ()
Sea Level Pressure  
Sea Level Pressure 30.29 in    
Wind  
Wind Speed 6 mph (WNW)    
Max Wind Speed 16 mph    
Max Gust Speed 21 mph    
Visibility 10 miles    
Events      
Averages and records for this station are not official NWS values.
T = Trace of Precipitation, MM = Missing Value Source: NWS Daily Summary

Daily Weather History Graph

Daily Weather History Graph

Search for Another Location

Airport or City:

Trip Planner

Search our weather history database for the weather conditions in past years. The results will help you decide how hot, cold, wet, or windy it might be!

Date:

Astronomy

Sep. 13, 2012 Rise Set
Actual Time 6:57 AM CDT 7:35 PM CDT
Civil Twilight 6:27 AM CDT 8:05 PM CDT
Nautical Twilight 5:52 AM CDT 8:40 PM CDT
Astronomical Twilight 5:15 AM CDT 9:17 PM CDT
Moon 4:12 AM CDT (9/13) 6:02 PM CDT (9/13)
Length of Visible Light 13h 37m
Length of Day
12h 37m
Waning Crescent, 7% of the Moon is Illuminated
Sep 13
Waning Crescent
Sep 15
New
Sep 22
First Quarter
Sep 29
Full
Oct 8
Last Quarter

Hourly Weather History & Observations

Time (CDT) Temp. Windchill Dew Point Humidity Pressure Visibility Wind Dir Wind Speed Gust Speed Precip Events Conditions
12:14 AM 51.8 °F - 30.2 °F 44% 30.25 in 10.0 mi NNW 5.8 mph - N/A   Clear
12:33 AM 53.6 °F - 28.4 °F 38% 30.25 in 10.0 mi NNW 5.8 mph - N/A   Clear
12:53 AM 53.6 °F - 26.6 °F 35% 30.25 in 10.0 mi NNW 4.6 mph - N/A   Clear
1:14 AM 53.6 °F - 26.6 °F 35% 30.25 in 10.0 mi NW 3.5 mph - N/A   Clear
1:33 AM 53.6 °F - 26.6 °F 35% 30.27 in 10.0 mi Calm Calm - N/A   Clear
1:53 AM 51.8 °F - 26.6 °F 38% 30.27 in 10.0 mi Calm Calm - N/A   Clear
2:14 AM 46.4 °F - 30.2 °F 53% 30.27 in 10.0 mi Calm Calm - N/A   Clear
2:33 AM 46.4 °F - 32.0 °F 57% 30.28 in 10.0 mi Calm Calm - N/A   Clear
2:53 AM 46.4 °F 45.2 °F 30.2 °F 53% 30.28 in 10.0 mi SSW 3.5 mph - N/A   Clear
3:14 AM 46.4 °F 45.2 °F 30.2 °F 53% 30.28 in 10.0 mi SSW 3.5 mph - N/A   Clear
3:33 AM 46.4 °F 45.2 °F 33.8 °F 62% 30.28 in 10.0 mi SW 3.5 mph - N/A   Clear
3:53 AM 46.4 °F 44.3 °F 33.8 °F 62% 30.29 in 10.0 mi SW 4.6 mph - N/A   Clear
4:13 AM 44.6 °F 42.2 °F 33.8 °F 66% 30.29 in 10.0 mi WSW 4.6 mph - N/A   Clear
4:33 AM 44.6 °F 42.2 °F 35.6 °F 71% 30.29 in 10.0 mi WSW 4.6 mph - N/A   Clear
4:53 AM 39.2 °F 34.2 °F 35.6 °F 87% 30.29 in 10.0 mi SW 6.9 mph - N/A   Clear
5:13 AM 42.8 °F 38.6 °F 35.6 °F 76% 30.29 in 10.0 mi WSW 6.9 mph - N/A   Clear
5:33 AM 41.0 °F 35.8 °F 35.6 °F 81% 30.30 in 10.0 mi WSW 8.1 mph - N/A   Clear
5:53 AM 41.0 °F 37.1 °F 35.6 °F 81% 30.30 in 10.0 mi WSW 5.8 mph - N/A   Clear
6:13 AM 41.0 °F 35.8 °F 35.6 °F 81% 30.30 in 10.0 mi West 8.1 mph - N/A   Clear
6:33 AM 42.8 °F 38.0 °F 37.4 °F 81% 30.31 in 10.0 mi West 8.1 mph - N/A   Clear
6:54 AM 42.8 °F 38.6 °F 35.6 °F 76% 30.32 in 10.0 mi WSW 6.9 mph - N/A   Clear
7:13 AM 42.8 °F 38.0 °F 33.8 °F 70% 30.33 in 10.0 mi West 8.1 mph - N/A   Clear
7:33 AM 44.6 °F 40.7 °F 30.2 °F 57% 30.33 in 7.0 mi West 6.9 mph - N/A   Clear
7:54 AM 48.2 °F - 30.2 °F 50% 30.33 in 10.0 mi West 8.1 mph - N/A   Clear
8:13 AM 50.0 °F - 28.4 °F 43% 30.33 in 10.0 mi West 6.9 mph - N/A   Clear
8:33 AM 53.6 °F - 26.6 °F 35% 30.33 in 10.0 mi West 5.8 mph - N/A   Clear
8:54 AM 55.4 °F - 24.8 °F 31% 30.33 in 10.0 mi West 5.8 mph - N/A   Clear
9:13 AM 59.0 °F - 23.0 °F 25% 30.34 in 10.0 mi West 5.8 mph - N/A   Clear
9:33 AM 60.8 °F - 21.2 °F 22% 30.34 in 10.0 mi West 6.9 mph - N/A   Clear
9:54 AM 62.6 °F - 21.2 °F 20% 30.34 in 10.0 mi West 6.9 mph - N/A   Scattered Clouds
10:13 AM 62.6 °F - 24.8 °F 24% 30.34 in 10.0 mi West 5.8 mph - N/A   Clear
10:33 AM 62.6 °F - 24.8 °F 24% 30.34 in 10.0 mi West 4.6 mph - N/A   Clear
10:54 AM 62.6 °F - 23.0 °F 22% 30.34 in 10.0 mi WSW 4.6 mph - N/A   Clear
11:13 AM 64.4 °F - 17.6 °F 16% 30.34 in 10.0 mi West 6.9 mph - N/A   Clear
11:33 AM 66.2 °F - 15.8 °F 14% 30.34 in 10.0 mi West 8.1 mph - N/A   Clear
11:54 AM 69.8 °F - 14.0 °F 12% 30.33 in 10.0 mi WSW 8.1 mph - N/A   Clear
12:13 PM 69.8 °F - 10.4 °F 10% 30.33 in 10.0 mi WSW 8.1 mph - N/A   Clear
12:33 PM 69.8 °F - 10.4 °F 10% 30.33 in 10.0 mi WSW 9.2 mph - N/A   Clear
12:54 PM 71.6 °F - 10.4 °F 9% 30.32 in 10.0 mi WSW 9.2 mph - N/A   Clear
1:13 PM 71.6 °F - 8.6 °F 9% 30.31 in 10.0 mi West 16.1 mph - N/A   Clear
1:34 PM 71.6 °F - 10.4 °F 9% 30.31 in 10.0 mi WNW 10.4 mph 19.6 mph N/A   Clear
1:53 PM 71.6 °F - 12.2 °F 10% 30.30 in 10.0 mi WNW 8.1 mph 19.6 mph N/A   Clear
2:13 PM 71.6 °F - 12.2 °F 10% 30.30 in 10.0 mi NW 12.7 mph 20.7 mph N/A   Clear
2:34 PM 71.6 °F - 12.2 °F 10% 30.30 in 10.0 mi NW 12.7 mph 16.1 mph N/A   Clear
2:53 PM 71.6 °F - 12.2 °F 10% 30.29 in 10.0 mi NW 9.2 mph 18.4 mph N/A   Clear
3:13 PM 73.4 °F - 12.2 °F 10% 30.29 in 10.0 mi West 11.5 mph 18.4 mph N/A   Clear
3:34 PM 73.4 °F - 14.0 °F 10% 30.28 in 10.0 mi WNW 9.2 mph - N/A   Clear
3:53 PM 71.6 °F - 14.0 °F 11% 30.28 in 10.0 mi WNW 9.2 mph - N/A   Clear
4:13 PM 73.4 °F - 12.2 °F 10% 30.27 in 10.0 mi NNW 10.4 mph - N/A   Clear
4:34 PM 71.6 °F - 12.2 °F 10% 30.27 in 10.0 mi North 4.6 mph - N/A   Clear
4:53 PM 73.4 °F - 12.2 °F 10% 30.26 in 10.0 mi NW 9.2 mph - N/A   Clear
5:13 PM 71.6 °F - 12.2 °F 10% 30.26 in 10.0 mi North 11.5 mph - N/A   Clear
5:34 PM 71.6 °F - 12.2 °F 10% 30.26 in 10.0 mi NW 6.9 mph - N/A   Clear
5:53 PM 71.6 °F - 12.2 °F 10% 30.26 in 10.0 mi NW 5.8 mph - N/A   Clear
6:13 PM 69.8 °F - 14.0 °F 12% 30.26 in 10.0 mi North 9.2 mph - N/A   Clear
6:34 PM 69.8 °F - 15.8 °F 13% 30.26 in 10.0 mi North 4.6 mph - N/A   Clear
6:53 PM 66.2 °F - 19.4 °F 17% 30.26 in 10.0 mi North 4.6 mph - N/A   Clear
7:13 PM 64.4 °F - 23.0 °F 21% 30.27 in 10.0 mi North 4.6 mph - N/A   Clear
7:34 PM 62.6 °F - 26.6 °F 26% 30.27 in 10.0 mi NE 4.6 mph - N/A   Clear
7:53 PM 60.8 °F - 28.4 °F 29% 30.27 in 10.0 mi NE 4.6 mph - N/A   Clear
8:13 PM 59.0 °F - 32.0 °F 36% 30.27 in 10.0 mi NE 4.6 mph - N/A   Clear
8:33 PM 59.0 °F - 32.0 °F 36% 30.28 in 10.0 mi ENE 4.6 mph - N/A   Clear
8:53 PM 57.2 °F - 32.0 °F 38% 30.28 in 10.0 mi ENE 6.9 mph - N/A   Clear
9:13 PM 57.2 °F - 32.0 °F 38% 30.28 in 10.0 mi ENE 5.8 mph - N/A   Clear
9:34 PM 57.2 °F - 30.2 °F 36% 30.29 in 10.0 mi ENE 5.8 mph - N/A   Clear
9:53 PM 57.2 °F - 33.8 °F 41% 30.29 in 10.0 mi East 5.8 mph - N/A   Clear
10:14 PM 57.2 °F - 33.8 °F 41% 30.29 in 10.0 mi ENE 5.8 mph - N/A   Clear
10:33 PM 55.4 °F - 33.8 °F 44% 30.29 in 10.0 mi East 3.5 mph - N/A   Clear
10:53 PM 55.4 °F - 33.8 °F 44% 30.30 in 10.0 mi ENE 3.5 mph - N/A   Clear
11:14 PM 55.4 °F - 33.8 °F 44% 30.30 in 10.0 mi NE 5.8 mph - N/A   Clear
11:33 PM 55.4 °F - 33.8 °F 44% 30.30 in 10.0 mi ENE 4.6 mph - N/A   Clear
11:53 PM 55.4 °F - 33.8 °F 44% 30.31 in 10.0 mi NE 4.6 mph - N/A   Clear